When you browse on this site, cookies collect data to enhance your experience and personalize the content and advertising you see.
Visit our Privacy Policy to learn more. By continuing to use the site, you agree to this use of cookies and data.
  • In Portugal
  • List of Countries
  • For 7 days
  • Water Temperature
  • Satellite Maps
  • Weather Map
  • Weather Widgets
  • user-avatar
    Login

    Hourly Weather Wlora

    Today, 17 January, Thursday

    Time Temperature Precipitation Wind Pressure Humidity
    00:00 +6°C° 0 mm 1 mps 767 mmHg 77%
    01:00 +6°C° 0 mm 1 mps 767 mmHg 77%
    02:00 +6°C° 0 mm 1 mps 766 mmHg 78%
    03:00 +5°C° 0 mm 2 mps 766 mmHg 79%
    04:00 +5°C° 0 mm 2 mps 766 mmHg 79%
    05:00 +4°C° 0 mm 3 mps 766 mmHg 80%
    06:00 +4°C° 0 mm 3 mps 766 mmHg 80%
    07:00 +4°C° 0 mm 4 mps 766 mmHg 80%
    08:00 +6°C° 0 mm 4 mps 766 mmHg 77%
    09:00 +7°C° 0 mm 5 mps 766 mmHg 74%
    10:00 +9°C° 0 mm 5 mps 766 mmHg 70%
    11:00 +9°C° 0 mm 6 mps 765 mmHg 71%
    12:00 +10°C° 0 mm 6 mps 765 mmHg 72%
    13:00 +10°C° 0 mm 7 mps 765 mmHg 72%
    14:00 +10°C° 0 mm 7 mps 764 mmHg 76%
    15:00 +9°C° 0 mm 7 mps 764 mmHg 81%
    16:00 +9°C° 0 mm 8 mps 764 mmHg 85%
    17:00 +7°C° 0 mm 8 mps 764 mmHg 87%
    18:00 +7°C° 0 mm 8 mps 764 mmHg 90%
    19:00 +6°C° 0 mm 8 mps 764 mmHg 92%
    20:00 +6°C° 0 mm 8 mps 764 mmHg 93%
    21:00 +6°C° 0 mm 8 mps 764 mmHg 94%
    22:00 +6°C° 0 mm 8 mps 764 mmHg 95%
    23:00 +7°C° 0.1 mm 8 mps 764 mmHg 95%

    Tomorrow, 18 January, Friday

    Time Temperature Precipitation Wind Pressure Humidity
    00:00 +7°C° 0.1 mm 8 mps 764 mmHg 96%
    01:00 +7°C° 0.1 mm 8 mps 764 mmHg 97%
    02:00 +9°C° 1.1 mm 8 mps 763 mmHg 98%
    03:00 +9°C° 1.1 mm 7 mps 763 mmHg 98%
    04:00 +9°C° 1.1 mm 7 mps 762 mmHg 99%
    05:00 +9°C° 2.2 mm 7 mps 762 mmHg 99%
    06:00 +8°C° 2.2 mm 6 mps 762 mmHg 99%
    07:00 +8°C° 2.2 mm 6 mps 762 mmHg 99%
    08:00 +9°C° 1.3 mm 6 mps 763 mmHg 99%
    09:00 +9°C° 1.3 mm 6 mps 763 mmHg 99%
    10:00 +9°C° 1.3 mm 6 mps 763 mmHg 99%
    11:00 +9°C° 1.5 mm 6 mps 763 mmHg 99%
    12:00 +9°C° 1.5 mm 7 mps 763 mmHg 99%
    13:00 +9°C° 1.5 mm 7 mps 762 mmHg 99%
    14:00 +9°C° 1.5 mm 7 mps 762 mmHg 98%
    15:00 +9°C° 1.5 mm 7 mps 762 mmHg 98%
    16:00 +9°C° 1.5 mm 7 mps 762 mmHg 98%
    17:00 +9°C° 0.9 mm 8 mps 762 mmHg 98%
    18:00 +9°C° 0.9 mm 8 mps 762 mmHg 98%
    19:00 +8°C° 0.9 mm 9 mps 762 mmHg 98%
    20:00 +8°C° 0.5 mm 9 mps 763 mmHg 97%
    21:00 +8°C° 0.5 mm 9 mps 763 mmHg 97%
    22:00 +8°C° 0.5 mm 10 mps 763 mmHg 96%
    23:00 +8°C° 0.2 mm 10 mps 763 mmHg 95%

    Day after tomorrow, 19 January, Saturday

    Time Temperature Precipitation Wind Pressure Humidity
    00:00 +8°C° 0.2 mm 10 mps 763 mmHg 94%
    01:00 +8°C° 0.2 mm 10 mps 763 mmHg 92%
    02:00 +8°C° 0 mm 10 mps 762 mmHg 92%
    03:00 +8°C° 0 mm 10 mps 762 mmHg 91%
    04:00 +8°C° 0 mm 10 mps 762 mmHg 91%
    05:00 +8°C° 0 mm 10 mps 762 mmHg 91%
    06:00 +8°C° 0 mm 10 mps 762 mmHg 91%
    07:00 +8°C° 0 mm 11 mps 762 mmHg 92%
    08:00 +8°C° 0 mm 11 mps 762 mmHg 92%
    09:00 +9°C° 0 mm 11 mps 762 mmHg 92%
    10:00 +9°C° 0 mm 11 mps 762 mmHg 91%
    11:00 +9°C° 0.3 mm 10 mps 762 mmHg 93%
    12:00 +9°C° 0.3 mm 10 mps 761 mmHg 95%
    13:00 +8°C° 0.3 mm 10 mps 761 mmHg 97%
    14:00 +8°C° 0.5 mm 10 mps 761 mmHg 97%
    15:00 +8°C° 0.5 mm 10 mps 761 mmHg 97%
    16:00 +8°C° 0.5 mm 10 mps 760 mmHg 97%
    17:00 +8°C° 0.2 mm 10 mps 760 mmHg 97%
    18:00 +9°C° 0.2 mm 10 mps 761 mmHg 97%
    19:00 +9°C° 0.2 mm 10 mps 761 mmHg 96%
    20:00 +9°C° 0.1 mm 11 mps 761 mmHg 96%
    21:00 +9°C° 0.1 mm 11 mps 761 mmHg 96%
    22:00 +9°C° 0.1 mm 11 mps 761 mmHg 95%
    23:00 +9°C° 0.2 mm 11 mps 761 mmHg 95%

    20 January, Sunday

    Time Temperature Precipitation Wind Pressure Humidity
    00:00 +9°C° 0.2 mm 11 mps 761 mmHg 94%
    01:00 +8°C° 0.2 mm 10 mps 760 mmHg 94%
    02:00 +8°C° 0.3 mm 10 mps 760 mmHg 95%
    03:00 +8°C° 0.3 mm 9 mps 760 mmHg 96%
    04:00 +8°C° 0.3 mm 9 mps 760 mmHg 97%
    05:00 +8°C° 0.6 mm 9 mps 760 mmHg 97%
    06:00 +9°C° 0.6 mm 8 mps 760 mmHg 97%
    07:00 +9°C° 0.6 mm 8 mps 761 mmHg 97%
    08:00 +10°C° 0.8 mm 7 mps 761 mmHg 96%
    09:00 +10°C° 0.8 mm 7 mps 761 mmHg 95%
    10:00 +11°C° 0.8 mm 6 mps 761 mmHg 93%
    11:00 +11°C° 0.5 mm 6 mps 761 mmHg 92%
    12:00 +12°C° 0.5 mm 5 mps 761 mmHg 90%
    13:00 +13°C° 0.5 mm 5 mps 761 mmHg 88%
    14:00 +12°C° 0.1 mm 3 mps 761 mmHg 89%
    15:00 +13°C° 0.1 mm 2 mps 761 mmHg 90%
    16:00 +13°C° 0.1 mm 1 mps 761 mmHg 91%
    17:00 +12°C° 0 mm 1 mps 761 mmHg 92%
    18:00 +12°C° 0 mm 1 mps 761 mmHg 93%
    19:00 +12°C° 0 mm 2 mps 762 mmHg 95%
    20:00 +10°C° 0 mm 2 mps 762 mmHg 95%
    21:00 +10°C° 0 mm 2 mps 762 mmHg 94%
    22:00 +9°C° 0 mm 3 mps 762 mmHg 94%
    23:00 +8°C° 0 mm 4 mps 762 mmHg 95%

    21 January, Monday

    Time Temperature Precipitation Wind Pressure Humidity
    00:00 +8°C° 0 mm 4 mps 762 mmHg 95%
    01:00 +9°C° 0 mm 5 mps 762 mmHg 95%
    02:00 +8°C° 0 mm 5 mps 762 mmHg 96%
    03:00 +8°C° 0 mm 5 mps 762 mmHg 96%
    04:00 +8°C° 0 mm 6 mps 762 mmHg 97%
    05:00 +8°C° 0.1 mm 6 mps 762 mmHg 97%
    06:00 +8°C° 0.1 mm 7 mps 762 mmHg 97%
    07:00 +8°C° 0.1 mm 7 mps 762 mmHg 97%
    08:00 +9°C° 0 mm 8 mps 762 mmHg 94%
    09:00 +10°C° 0 mm 8 mps 762 mmHg 91%
    10:00 +11°C° 0 mm 9 mps 762 mmHg 88%
    11:00 +11°C° 0.3 mm 9 mps 761 mmHg 89%
    12:00 +11°C° 0.3 mm 9 mps 761 mmHg 90%
    13:00 +11°C° 0.3 mm 9 mps 760 mmHg 90%
    14:00 +11°C° 0.6 mm 10 mps 760 mmHg 93%
    15:00 +11°C° 0.6 mm 10 mps 760 mmHg 95%
    16:00 +9°C° 0.6 mm 10 mps 760 mmHg 97%
    17:00 +9°C° 0.5 mm 10 mps 760 mmHg 96%
    18:00 +9°C° 0.5 mm 11 mps 760 mmHg 95%
    19:00 +9°C° 0.5 mm 11 mps 760 mmHg 94%
    20:00 +9°C° 0.5 mm 11 mps 760 mmHg 93%
    21:00 +9°C° 0.5 mm 12 mps 760 mmHg 91%
    22:00 +9°C° 0.5 mm 12 mps 760 mmHg 90%
    23:00 +9°C° 0.6 mm 13 mps 760 mmHg 88%

    22 January, Tuesday

    Time Temperature Precipitation Wind Pressure Humidity
    00:00 +8°C° 0.6 mm 13 mps 759 mmHg 85%
    01:00 +8°C° 0.6 mm 14 mps 759 mmHg 82%
    02:00 +8°C° 1.6 mm 13 mps 758 mmHg 84%
    03:00 +8°C° 1.6 mm 13 mps 758 mmHg 85%
    04:00 +8°C° 1.6 mm 13 mps 757 mmHg 86%
    05:00 +8°C° 1.1 mm 13 mps 757 mmHg 88%
    06:00 +7°C° 1.1 mm 13 mps 757 mmHg 90%
    07:00 +7°C° 1.1 mm 13 mps 756 mmHg 92%
    08:00 +8°C° 2.4 mm 13 mps 756 mmHg 93%
    09:00 +8°C° 2.4 mm 13 mps 756 mmHg 94%
    10:00 +8°C° 2.4 mm 13 mps 756 mmHg 95%
    11:00 +8°C° 1.3 mm 10 mps 756 mmHg 95%
    12:00 +10°C° 1.3 mm 8 mps 756 mmHg 96%
    13:00 +10°C° 1.3 mm 6 mps 756 mmHg 97%
    14:00 +10°C° 1 mm 6 mps 756 mmHg 94%
    15:00 +10°C° 1 mm 5 mps 755 mmHg 92%
    16:00 +10°C° 1 mm 5 mps 755 mmHg 89%
    17:00 +10°C° 0.7 mm 5 mps 755 mmHg 90%
    18:00 +11°C° 0.7 mm 4 mps 755 mmHg 91%
    19:00 +10°C° 0.7 mm 4 mps 755 mmHg 91%
    20:00 +10°C° 1.2 mm 4 mps 755 mmHg 92%
    21:00 +10°C° 1.2 mm 4 mps 755 mmHg 93%
    22:00 +10°C° 1.2 mm 4 mps 755 mmHg 93%
    23:00 +10°C° 1.1 mm 4 mps 754 mmHg 93%
    Show more